This demonstration page uses our WeatherBlox Daily Observations layout. Learn more.

Left ArrowRight Arrow

40.92945, -100.16068

Hourly Observations for October 14, 2018

Temp ( °F °C ) Dew Point ( °F °C ) Humidity (%) Winds ( mph kmh ) Pressure ( in mb ) Visibility ( mi km ) Precip ( " mm )
12:15 am 00:15 Cloudy 41 5.1 39 3.7 91 91 NNE 18 30 30 1016 7 11.26538 0 0
12:35 am 00:35 Cloudy 41 4.9 38 3.3 90 90 NNE 18 30 30 1016 10 16.0934 0 0
12:55 am 00:55 Cloudy 40 4.5 37 3 90 90 NNE 18 30 30 1016 10 16.0934 0 0
1:15 am 01:15 Cloudy 40 4.2 37 2.5 89 89 NNE 14 22 30.03 1017 10 16.0934 0 0
1:35 am 01:35 Cloudy with Mist and Fog 39 4.1 37 2.7 91 91 N 16 26 30.03 1017 5 8.0467 0 0
1:55 am 01:55 Cloudy with Drizzle 39 3.8 37 2.5 91 91 NNE 13 20 30.03 1017 5 8.0467 0 0
2:15 am 02:15 Cloudy with Light Rain 39 3.7 37 2.5 92 92 NNE 12 19 30.06 1018 7 11.26538 0 0
2:35 am 02:35 Cloudy with Light Rain 38 3.5 36 2.1 91 91 N 17 28 30.09 1019 4 6.43736 0.01 0.254
2:55 am 02:55 Cloudy with Light Rain 37 2.9 35 1.4 90 90 N 18 30 30.12 1020 5 8.0467 0.02 0.508
3:15 am 03:15 Cloudy with Light Rain 36 2 33 0.5 90 90 N 18 30 30.12 1020 3 4.82802 0.02 0.508
3:35 am 03:35 Cloudy with Light Rain 35 1.5 32 0.2 91 91 N 21 33 30.12 1020 3 4.82802 0.02 0.508
3:55 am 03:55 Windy with Snow Likely 33 0.8 32 -0.1 94 94 N 21 33 30.15 1021 1.75 2.816345 0.02 0.508
4:15 am 04:15 Windy with Snow Likely 33 0.7 31 -0.6 91 91 N 21 33 30.18 1022 5 8.0467 0 0
4:35 am 04:35 Cloudy 33 0.5 30 -1.1 89 89 N 23 37 30.18 1022 7 11.26538 0 0
4:55 am 04:55 Cloudy with Mist and Fog 32 0.2 30 -1.1 91 91 N 23 37 30.18 1022 5 8.0467 0 0
5:15 am 05:15 Cloudy 32 0.2 29 -1.5 89 89 N 22 35 30.18 1022 10 16.0934 0 0
5:35 am 05:35 Windy with Snow Likely 32 0 28 -2 87 87 N 22 35 30.21 1023 10 16.0934 0 0
5:55 am 05:55 Cloudy with Light Snow 32 -0.1 28 -2 87 87 N 17 28 30.18 1022 5 8.0467 0.01 0.254
6:15 am 06:15 Cloudy with Light Snow 32 -0.2 29 -1.7 90 90 N 12 19 30.21 1023 2.5 4.02335 0.01 0.254
6:35 am 06:35 Cloudy with Light Snow 31 -0.5 28 -2 90 90 NNE 15 24 30.24 1024 4 6.43736 0.01 0.254
6:55 am 06:55 Cloudy with Light Snow 31 -0.6 28 -2 90 90 N 10 17 30.24 1024 1.25 2.011675 0.02 0.508
7:15 am 07:15 Cloudy with Light Snow 31 -0.7 28 -2 91 91 N 14 22 30.24 1024 1.5 2.41401 0.01 0.254
7:35 am 07:35 Cloudy with Light Snow 31 -0.6 28 -2.2 89 89 N 10 17 30.24 1024 4 6.43736 0.01 0.254
7:55 am 07:55 Cloudy with Light Snow 31 -0.5 28 -2.3 88 88 N 14 22 30.24 1024 5 8.0467 0.01 0.254
8:15 am 08:15 Cloudy with Light Snow 31 -0.8 27 -2.9 86 86 N 17 28 30.27 1025 4 6.43736 0 0
8:35 am 08:35 Cloudy 30 -1 26 -3.6 83 83 N 16 26 30.3 1026 10 16.0934 0 0
8:55 am 08:55 Cloudy 30 -0.9 25 -4.1 79 79 N 15 24 30.33 1027 10 16.0934 0 0
9:15 am 09:15 Cloudy 31 -0.6 25 -4 78 78 N 18 30 30.27 1025 10 16.0934 0 0
9:35 am 09:35 Cloudy 31 -0.5 25 -3.9 78 78 N 15 24 30.3 1026 10 16.0934 0 0
9:55 am 09:55 Cloudy 32 -0.2 24 -4.2 75 75 N 17 28 30.3 1026 10 16.0934 0 0
10:15 am 10:15 Cloudy 32 -0.2 24 -4.2 75 75 N 16 26 30.3 1026 10 16.0934 0 0
10:35 am 10:35 Cloudy 32 0 25 -4 75 75 N 17 28 30.33 1027 10 16.0934 0 0
10:55 am 10:55 Cloudy 32 0 26 -3.6 77 77 N 17 28 30.33 1027 10 16.0934 0 0
11:15 am 11:15 Cloudy 32 0.1 25 -3.7 76 76 N 12 19 30.3 1026 10 16.0934 0 0
11:35 am 11:35 Cloudy 32 0.1 24 -4.4 72 72 N 18 30 30.33 1027 10 16.0934 0 0
11:55 am 11:55 Cloudy 33 0.3 25 -4 73 73 N 15 24 30.33 1027 10 16.0934 0 0
12:15 pm 12:15 Cloudy 33 0.4 24 -4.6 69 69 N 16 26 30.36 1028 10 16.0934 0 0
12:35 pm 12:35 Cloudy 33 0.3 23 -5.2 67 67 N 20 31 30.36 1028 10 16.0934 0 0
12:55 pm 12:55 Cloudy 33 0.4 23 -4.9 68 68 NNW 14 22 30.36 1028 10 16.0934 0 0
1:15 pm 13:15 Cloudy 33 0.5 23 -4.8 68 68 N 13 20 30.36 1028 10 16.0934 0 0
1:35 pm 13:35 Cloudy 33 0.5 23 -5 67 67 N 12 19 30.36 1028 10 16.0934 0 0
1:55 pm 13:55 Cloudy 33 0.5 23 -4.9 67 67 N 16 26 30.33 1027 10 16.0934 0 0
2:15 pm 14:15 Cloudy 33 0.5 23 -5.2 66 66 N 15 24 30.36 1028 10 16.0934 0 0
2:35 pm 14:35 Cloudy 33 0.5 22 -5.5 64 64 N 17 28 30.33 1027 10 16.0934 0 0
2:55 pm 14:55 Cloudy 33 0.5 22 -5.6 64 64 NNW 20 31 30.33 1027 10 16.0934 0 0
3:15 pm 15:15 Cloudy 33 0.3 21 -5.9 63 63 N 18 30 30.33 1027 10 16.0934 0 0
3:35 pm 15:35 Cloudy 33 0.4 22 -5.4 65 65 N 16 26 30.33 1027 10 16.0934 0 0
3:55 pm 15:55 Cloudy 33 0.5 22 -5.5 64 64 N 16 26 30.33 1027 10 16.0934 0 0
4:15 pm 16:15 Cloudy 33 0.6 22 -5.5 64 64 N 17 28 30.33 1027 10 16.0934 0 0
4:35 pm 16:35 Cloudy 33 0.7 23 -5.2 65 65 N 15 24 30.36 1028 10 16.0934 0 0
4:55 pm 16:55 Cloudy 33 0.4 22 -5.4 65 65 N 15 24 30.36 1028 10 16.0934 0 0
5:15 pm 17:15 Cloudy 33 0.3 22 -5.5 65 65 N 16 26 30.36 1028 10 16.0934 0 0
5:35 pm 17:35 Cloudy 32 0.2 22 -5.6 65 65 NNW 16 26 30.36 1028 10 16.0934 0 0
5:55 pm 17:55 Cloudy 32 0 22 -5.5 67 67 NNW 15 24 30.36 1028 10 16.0934 0 0
6:15 pm 18:15 Cloudy 32 0 22 -5.4 67 67 N 15 24 30.36 1028 10 16.0934 0 0
6:35 pm 18:35 Cloudy 32 0 22 -5.5 67 67 N 12 19 30.36 1028 10 16.0934 0 0
6:55 pm 18:55 Cloudy 32 -0.1 23 -5.2 69 69 N 13 20 30.39 1029 10 16.0934 0 0
7:15 pm 19:15 Cloudy 32 -0.2 21 -5.9 66 66 N 15 24 30.39 1029 10 16.0934 0 0
7:35 pm 19:35 Cloudy 31 -0.3 22 -5.8 67 67 NNW 14 22 30.42 1030 10 16.0934 0 0
7:55 pm 19:55 Cloudy 31 -0.5 21 -6 67 67 NNW 13 20 30.42 1030 10 16.0934 0 0
8:15 pm 20:15 Cloudy 31 -0.6 20 -6.6 64 64 NNW 15 24 30.42 1030 10 16.0934 0 0
8:35 pm 20:35 Mostly Cloudy 31 -0.8 20 -6.5 66 66 N 14 22 30.42 1030 10 16.0934 0 0
8:55 pm 20:55 Cloudy 31 -0.7 21 -6.3 66 66 NNW 9 15 30.45 1031 10 16.0934 0 0
9:15 pm 21:15 Cloudy 31 -0.8 21 -6 68 68 NNW 8 13 30.45 1031 10 16.0934 0 0
9:35 pm 21:35 Cloudy 30 -1 21 -6 69 69 NNW 8 13 30.45 1031 10 16.0934 0 0
9:55 pm 21:55 Cloudy 31 -0.8 22 -5.7 70 70 NNW 6 9 30.45 1031 10 16.0934 0 0
10:15 pm 22:15 Cloudy 31 -0.7 22 -5.6 70 70 NNW 8 13 30.45 1031 10 16.0934 0 0
10:35 pm 22:35 Cloudy 31 -0.5 22 -5.7 68 68 NNW 10 17 30.48 1032 10 16.0934 0 0
10:55 pm 22:55 Cloudy 31 -0.5 21 -5.9 67 67 N 12 19 30.48 1032 10 16.0934 0 0
11:15 pm 23:15 Cloudy 31 -0.5 21 -6 67 67 NNW 8 13 30.48 1032 10 16.0934 0 0
11:35 pm 23:35 Cloudy 31 -0.7 21 -6 68 68 NNW 7 11 30.48 1032 10 16.0934 0 0
11:55 pm 23:55 Cloudy 31 -0.7 22 -5.5 70 70 NNW 6 9 30.48 1032 10 16.0934 0 0

Powered by AerisWeather